Date String (YYYY-MM-DD hh:mm:ss) UTC,Instrument flags,absolute air pressure of the measurement (hPa),sample flow rate (lpm),inlet stack bypass flow (lpm),air temperature of the measurement (°C),ambient temperature measured by the external sensor (°C),aerosol sample conditioner tube jacket temperature (°C),OPC LED temperature (°C),internal box temperature (°C),relative humidity of the measurement (%),span deviation,mass concentration of particles derived from Lorenz-Mie calculation of OPC scattering (μg/m³),mass concentration of particles derived from Lorenz-Mie calculation of OPC scattering (μg/m³),mass concentration of particles derived from Lorenz-Mie calculation of OPC scattering (μg/m³)
DateTimeUTC,F1_M11,P_M11,Q1_M11,Q2_M11,T1_M11,T2_M11,T3_M11,T4_M11,T5_M11,U1_M11,ZSPAN_M11,X0_M11,X2_M11,X1_M11
2023-12-28 00:00:00,SystemResetWarning,0832.1,5.00,000.00,023.5,022.7,000.0,031.9,024.7,8.6,0000.0,0001.84,0000.64,0000.38
2023-12-28 00:01:00,SystemResetWarning,0832.2,5.00,000.00,023.5,022.7,000.0,031.9,024.8,8.6,0000.0,0001.91,0000.67,0000.39
2023-12-28 00:02:00,SystemResetWarning,0832.2,5.00,000.00,023.5,022.6,000.0,031.9,024.8,8.6,0000.0,0002.02,0000.70,0000.40
2023-12-28 00:03:00,SystemResetWarning,0832.2,5.00,000.00,023.5,022.6,000.0,031.9,024.7,8.6,0000.0,0002.19,0000.76,0000.41
2023-12-28 00:04:00,SystemResetWarning,0832.2,5.00,000.00,023.5,022.6,000.0,031.9,024.7,8.6,0000.0,0002.33,0000.79,0000.41
2023-12-28 00:05:00,SystemResetWarning,0832.2,5.00,000.00,023.5,022.6,000.0,031.9,024.7,8.7,0000.0,0002.28,0000.78,0000.41
2023-12-28 00:06:00,SystemResetWarning,0832.2,5.00,000.00,023.5,022.6,000.0,031.9,024.6,8.7,0000.0,0002.17,0000.82,0000.43
2023-12-28 00:07:00,SystemResetWarning,0832.2,5.00,000.00,023.5,022.5,000.0,031.8,024.6,8.7,0000.0,0001.94,0000.78,0000.42
2023-12-28 00:08:00,SystemResetWarning,0832.2,5.00,000.00,023.4,022.5,000.0,031.8,024.5,8.7,0000.0,0002.12,0000.77,0000.41
2023-12-28 00:09:00,SystemResetWarning,0832.2,5.00,000.00,023.4,022.5,000.0,031.8,024.4,8.7,0000.0,0002.71,0000.77,0000.42
2023-12-28 00:10:00,SystemResetWarning,0832.3,5.00,000.00,023.4,022.5,000.0,031.8,024.4,8.7,0000.0,0002.55,0000.73,0000.40
2023-12-28 00:11:00,SystemResetWarning,0832.3,5.00,000.00,023.4,022.4,000.0,031.8,024.4,8.7,0000.0,0002.44,0000.69,0000.39
2023-12-28 00:12:00,SystemResetWarning,0832.3,5.00,000.00,023.4,022.4,000.0,031.8,024.4,8.7,0000.0,0003.09,0000.67,0000.39
2023-12-28 00:13:00,SystemResetWarning,0832.3,5.00,000.00,023.4,022.4,000.0,031.8,024.5,8.7,0000.0,0003.93,0000.68,0000.39
2023-12-28 00:14:00,SystemResetWarning,0832.3,5.00,000.00,023.4,022.5,000.0,031.8,024.5,8.7,0000.0,0003.90,0000.63,0000.39
2023-12-28 00:15:00,SystemResetWarning,0832.3,5.00,000.00,023.4,022.5,000.0,031.8,024.6,8.6,0000.0,0004.12,0000.64,0000.39
2023-12-28 00:16:00,SystemResetWarning,0832.3,5.00,000.00,023.4,022.5,000.0,031.7,024.6,8.7,0000.0,0004.34,0000.67,0000.39
2023-12-28 00:17:00,SystemResetWarning,0832.3,5.00,000.00,023.4,022.5,000.0,031.7,024.6,8.7,0000.0,0004.41,0000.66,0000.38
2023-12-28 00:18:00,SystemResetWarning,0832.3,4.99,000.00,023.4,022.5,000.0,031.7,024.6,8.7,0000.0,0005.50,0000.64,0000.37
2023-12-28 00:19:00,SystemResetWarning,0832.3,4.99,000.00,023.4,022.5,000.0,031.7,024.7,8.7,0000.0,0005.27,0000.60,0000.37
2023-12-28 00:20:00,SystemResetWarning,0832.3,4.99,000.00,023.4,022.6,000.0,031.7,024.7,8.7,0000.0,0005.00,0000.60,0000.37
2023-12-28 00:21:00,SystemResetWarning,0832.3,5.00,000.00,023.5,022.6,000.0,031.7,024.7,8.7,0000.0,0005.26,0000.65,0000.36
2023-12-28 00:22:00,SystemResetWarning,0832.3,5.00,000.00,023.5,022.6,000.0,031.7,024.7,8.7,0000.0,0005.92,0000.66,0000.36
2023-12-28 00:23:00,SystemResetWarning,0832.3,5.01,000.00,023.5,022.7,000.0,031.7,024.8,8.7,0000.0,0006.04,0000.71,0000.36
2023-12-28 00:24:00,SystemResetWarning,0832.3,5.00,000.00,023.5,022.7,000.0,031.8,024.8,8.7,0000.0,0004.80,0000.73,0000.36
2023-12-28 00:25:00,SystemResetWarning,0832.3,4.98,000.00,023.5,022.8,000.0,031.8,024.8,8.7,0000.0,0004.76,0000.74,0000.36
2023-12-28 00:26:00,SystemResetWarning,0832.3,5.00,000.00,023.5,022.8,000.0,031.8,024.8,8.7,0000.0,0005.06,0000.73,0000.37
2023-12-28 00:27:00,SystemResetWarning,0832.3,5.01,000.00,023.5,022.8,000.0,031.8,024.8,8.7,0000.0,0005.37,0000.74,0000.37
2023-12-28 00:28:00,SystemResetWarning,0832.3,5.00,000.00,023.5,022.8,000.0,031.8,024.8,8.7,0000.0,0005.81,0000.76,0000.39
2023-12-28 00:29:00,SystemResetWarning,0832.3,4.99,000.00,023.6,022.8,000.0,031.8,024.8,8.7,0000.0,0005.50,0000.83,0000.42
2023-12-28 00:30:00,SystemResetWarning,0832.3,4.99,000.00,023.6,022.8,000.0,031.8,024.8,8.7,0000.0,0006.65,0000.88,0000.44
2023-12-28 00:31:00,SystemResetWarning,0832.4,5.01,000.00,023.6,022.9,000.0,031.8,024.8,8.7,0000.0,0007.60,0000.91,0000.46
2023-12-28 00:32:00,SystemResetWarning,0832.4,5.02,000.00,023.6,022.8,000.0,031.8,024.8,8.7,0000.0,0008.29,0000.95,0000.48
2023-12-28 00:33:00,SystemResetWarning,0832.4,4.99,000.00,023.5,022.8,000.0,031.8,024.7,8.7,0000.0,0008.06,0000.97,0000.51
2023-12-28 00:34:00,SystemResetWarning,0832.4,4.99,000.00,023.5,022.8,000.0,031.8,024.8,8.7,0000.0,0007.96,0000.99,0000.53
2023-12-28 00:35:00,SystemResetWarning,0832.4,5.00,000.00,023.5,022.7,000.0,031.8,024.8,8.7,0000.0,0008.00,0001.02,0000.55
2023-12-28 00:36:00,SystemResetWarning,0832.4,5.01,000.00,023.5,022.7,000.0,031.8,024.8,8.7,0000.0,0007.97,0001.03,0000.57
2023-12-28 00:37:00,SystemResetWarning,0832.4,5.01,000.00,023.6,022.7,000.0,031.8,024.8,8.7,0000.0,0008.23,0001.07,0000.60
2023-12-28 00:38:00,SystemResetWarning,0832.5,5.00,000.00,023.5,022.7,000.0,031.8,024.7,8.8,0000.0,0008.68,0001.11,0000.63
2023-12-28 00:39:00,SystemResetWarning,0832.5,4.99,000.00,023.5,022.7,000.0,031.8,024.8,8.8,0000.0,0009.00,0001.19,0000.65
2023-12-28 00:40:00,SystemResetWarning,0832.5,4.99,000.00,023.5,022.7,000.0,031.8,024.8,8.8,0000.0,0008.59,0001.17,0000.66
2023-12-28 00:41:00,SystemResetWarning,0832.5,5.01,000.00,023.5,022.6,000.0,031.8,024.8,8.7,0000.0,0008.42,0001.21,0000.66
2023-12-28 00:42:00,SystemResetWarning,0832.4,5.01,000.00,023.5,022.6,000.0,031.8,024.8,8.8,0000.0,0007.66,0001.22,0000.66
2023-12-28 00:43:00,SystemResetWarning,0832.4,4.99,000.00,023.5,022.6,000.0,031.8,024.7,8.8,0000.0,0006.53,0001.19,0000.65
2023-12-28 00:44:00,SystemResetWarning,0832.4,4.99,000.00,023.5,022.6,000.0,031.8,024.7,8.8,0000.0,0007.00,0001.20,0000.64
2023-12-28 00:45:00,SystemResetWarning,0832.4,5.00,000.00,023.5,022.6,000.0,031.8,024.7,8.8,0000.0,0006.69,0001.19,0000.63
2023-12-28 00:46:00,SystemResetWarning,0832.4,5.00,000.00,023.5,022.5,000.0,031.8,024.7,8.8,0000.0,0006.50,0001.16,0000.62
2023-12-28 00:47:00,SystemResetWarning,0832.4,5.00,000.00,023.5,022.5,000.0,031.8,024.7,8.8,0000.0,0006.52,0001.17,0000.63
2023-12-28 00:48:00,SystemResetWarning,0832.4,5.00,000.00,023.5,022.5,000.0,031.8,024.6,8.8,0000.0,0006.10,0001.18,0000.63
2023-12-28 00:49:00,SystemResetWarning,0832.4,5.00,000.00,023.4,022.5,000.0,031.8,024.6,8.8,0000.0,0006.40,0001.20,0000.64
2023-12-28 00:50:00,SystemResetWarning,0832.4,5.00,000.00,023.4,022.4,000.0,031.8,024.6,8.8,0000.0,0006.86,0001.17,0000.64
2023-12-28 00:51:00,SystemResetWarning,0832.4,5.00,000.00,023.4,022.4,000.0,031.8,024.6,8.8,0000.0,0007.00,0001.22,0000.65
2023-12-28 00:52:00,SystemResetWarning,0832.4,5.00,000.00,023.4,022.4,000.0,031.8,024.6,8.9,0000.0,0006.74,0001.25,0000.67
2023-12-28 00:53:00,SystemResetWarning,0832.5,5.00,000.00,023.4,022.4,000.0,031.8,024.6,8.9,0000.0,0007.27,0001.27,0000.70
2023-12-28 00:54:00,SystemResetWarning,0832.5,5.00,000.00,023.4,022.4,000.0,031.8,024.6,8.9,0000.0,0007.26,0001.33,0000.73
2023-12-28 00:55:00,SystemResetWarning,0832.6,5.00,000.00,023.4,022.4,000.0,031.8,024.6,8.9,0000.0,0006.75,0001.39,0000.77
2023-12-28 00:56:00,SystemResetWarning,0832.6,5.00,000.00,023.4,022.4,000.0,031.7,024.6,8.9,0000.0,0007.00,0001.42,0000.79
2023-12-28 00:57:00,SystemResetWarning,0832.6,5.00,000.00,023.4,022.4,000.0,031.7,024.6,8.9,0000.0,0007.61,0001.48,0000.80
2023-12-28 00:58:00,SystemResetWarning,0832.5,5.00,000.00,023.4,022.4,000.0,031.7,024.6,8.9,0000.0,0007.79,0001.51,0000.81
2023-12-28 00:59:00,SystemResetWarning,0832.5,5.00,000.00,023.3,022.4,000.0,031.7,024.6,8.9,0000.0,0007.75,0001.49,0000.79
